x

Corpus Christi, Tx - 60nm Sse Of Corpus Christi, Tx (42020) Wave Buoy

9:50am - Tue 28th Feb 2017 All times are CST. -6 hours from GMT.

  • Sig Wave height 4.6ft
  • Swell Direction
  • Peak Period 8s
  • Average Period 5s
  • Wind
    18mph, 20mph gusts
  • Air Temp 74°f
  • Sea Pressure 1014.5mb
  • Corpus Christi, Tx - 60nm Sse Of Corpus Christi, Tx
  • Corpus Christi, Tx - 60nm Sse Of Corpus Christi, Tx

More Historic Weather Station data

Upgrade to MSW Pro to gain access to the past 30 days of data for over 8000 Wavebouys and Weather Stations around the globe.

Join Pro

Comparision Forecast

View Surf forecast
   
Tue 02/28 9:50am 4.5ft 8s 5s 18 20 mph 1014.5mb 74f
8:50am 5ft 7s 5s 16 20 mph 1014.4mb 74f
7:50am 4.5ft 7s 5s 16 20 mph 1013.6mb 74f
6:50am 4.5ft 8s 5s 16 20 mph 1013.3mb 74f
5:50am 4.5ft 7s 5s 13 18 mph 1012.7mb 74f
4:50am 4.5ft 7s 5s 16 18 mph 1012.6mb 74f
3:50am 4.5ft 7s 5s 16 20 mph 1012.6mb 74f
2:50am 4.5ft 7s 5s 16 20 mph 1012.7mb 74f
1:50am 4.5ft 7s 5s 18 20 mph 1013mb 75f
12:50am 4.5ft 7s 5s 18 20 mph 1013.2mb 75f
Mon 02/27 11:50pm 4.5ft 7s 5s 16 20 mph 1013.1mb 75f
10:50pm 4ft 7s 5s 18 22 mph 1013.4mb 75f
9:50pm 4.5ft 7s 5s 16 20 mph 1013.6mb 75f
8:50pm 4.5ft 7s 5s 16 20 mph 1013.2mb 75f
7:50pm 4ft 7s 5s 16 18 mph 1012.6mb 75f
6:50pm 4.5ft 7s 5s 16 18 mph 1011.7mb 75f
5:50pm 4.5ft 7s 5s 13 16 mph 1011.7mb 75f
4:50pm 4.5ft 7s 5s 11 13 mph 1011.4mb 75f
3:50pm 4ft 7s 5s 9 11 mph 1011.5mb 75f
2:50pm 4.5ft 7s 5s 9 11 mph 1011.9mb 75f
1:50pm 4ft 7s 5s 11 13 mph 1012.4mb 75f
12:50pm 4.5ft 6s 5s 11 13 mph 1013.5mb 75f
11:50am 4ft 7s 5s 9 11 mph 1014.1mb 75f
10:50am 4.5ft 7s 5s 11 13 mph 1014mb 75f
9:50am 4.5ft 6s 5s 13 16 mph 1013.7mb 74f
8:50am 4.5ft 6s 5s 13 16 mph 1013mb 74f
7:50am 4.5ft 6s 5s 13 16 mph 1012.1mb 74f
6:50am 4.5ft 6s 5s 13 16 mph 1011.9mb 74f
5:50am 4.5ft 6s 5s 18 20 mph 1011.3mb 74f
4:50am 4.5ft 6s 5s 18 22 mph 1010.8mb 74f
3:50am 5ft 6s 5s 20 25 mph 1010.6mb 74f
2:50am 5ft 6s 5s 20 25 mph 1010.7mb 74f
1:50am 5ft 6s 5s 20 25 mph 1010.9mb 74f
12:50am 5ft 6s 5s 20 22 mph 1011.5mb 74f
Sun 02/26 11:50pm 5ft 6s 5s 18 22 mph 1011.9mb 74f
10:50pm 5ft 6s 5s 22 25 mph 1011.6mb 74f
9:50pm 5.5ft 6s 5s 22 25 mph 1011.5mb 74f
8:50pm 5ft 6s 5s 22 27 mph 1011.2mb 74f
7:50pm 4.5ft 6s 5s 20 25 mph 1011.1mb 74f
6:50pm 5ft 6s 5s 20 25 mph 1010.9mb 74f
5:50pm 5.5ft 6s 5s 18 22 mph 1010.9mb 74f
4:50pm 6ft 7s 5s 18 22 mph 1010.8mb 75f
3:50pm 6ft 6s 5s 20 25 mph 1010.9mb 75f
2:50pm 5.5ft 6s 5s 22 25 mph 1011.1mb 75f
1:50pm 6ft 6s 5s 20 25 mph 1012.2mb 74f
12:50pm 6ft 6s 5s 22 27 mph 1013mb 75f
11:50am 6ft 6s 5s 25 31 mph 1014mb 75f
10:50am 6ft 6s 5s 25 31 mph 1014.1mb 74f
9:50am 5.5ft 6s 5s 25 27 mph 1014.1mb 74f
8:50am 5ft 6s 5s 25 29 mph 1013.9mb 73f
7:50am 5ft 7s 5s 22 27 mph 1013.6mb 73f
6:50am 4.5ft 7s 5s 22 27 mph 1013.4mb 73f
5:50am 4.5ft 7s 5s 20 25 mph 1013.5mb 72f
4:50am 4.5ft 7s 5s 20 25 mph 1013.3mb 72f
3:50am 4.5ft 7s 5s 20 25 mph 1013.4mb 72f
2:50am 5ft 7s 5s 20 25 mph 1013.7mb 71f
1:50am 4.5ft 7s 5s 20 22 mph 1014.5mb 71f
12:50am 5ft 6s 5s 16 20 mph 1015.2mb 70f
Sat 02/25 11:50pm 5.5ft 7s 5s 18 22 mph 1015.8mb 70f
10:50pm 5.5ft 8s 5s 20 22 mph 1016.2mb 69f
9:50pm 5.5ft 8s 5s 20 25 mph 1016.1mb 69f
8:50pm 6ft 8s 5s 20 25 mph 1016.4mb 69f
7:50pm 6ft 8s 6s 18 22 mph 1016.4mb 68f
6:50pm 6ft 7s 6s 18 25 mph 1016.2mb 68f
5:50pm 6ft 8s 6s 18 22 mph 1016.4mb 67f
4:50pm 6.5ft 8s 6s 18 22 mph 1016.5mb 67f
3:50pm 7ft 8s 6s 18 22 mph 1016.3mb 67f
2:50pm 7ft 8s 6s 18 22 mph 1016.6mb 67f
1:50pm 7.5ft 8s 6s 20 27 mph 1017.1mb 67f
12:50pm 7ft 8s 6s 20 27 mph 1017.8mb 67f
11:50am 6.5ft 7s 6s 20 27 mph 1018.6mb 68f
10:50am 7ft 8s 6s 20 27 mph 1018.8mb 67f
9:50am 7ft 7s 5s 20 27 mph 1018.4mb 67f
8:50am 7ft 7s 5s 25 31 mph 1016.9mb 68f
7:50am 7ft 7s 5s 25 29 mph 1016.1mb 68f
6:50am 7.5ft 7s 5s 27 31 mph 1014.7mb 68f
5:50am 7ft 7s 5s 22 27 mph 1014.6mb 68f
4:50am 7.5ft 7s 6s 22 27 mph 1013.8mb 68f
3:50am 7ft 6s 5s 20 25 mph 1013.4mb 68f
2:50am 6ft 6s 5s 25 29 mph 1012.9mb 69f
1:50am 6.5ft 5s 5s 27 31 mph 1012.2mb 71f
12:50am 6ft 7s 5s 27 34 mph 1011.2mb 73f
Fri 02/24 11:50pm 5ft 7s 5s 29 34 mph 1010.7mb 74f
10:50pm 4.5ft 7s 5s 27 31 mph 1010.7mb 75f
9:50pm 4.5ft 7s 6s 18 20 mph 1010.8mb 75f
8:50pm 5ft 7s 6s 16 18 mph 1010mb 74f
7:50pm 4.5ft 7s 6s 11 13 mph 1008.7mb 74f
6:50pm 5ft 7s 6s 11 13 mph 1007.8mb 74f
5:50pm 4.5ft 7s 6s 11 13 mph 1007.3mb 74f